"Pseudo-MPEC" for ZTF1073
Created 2025 Oct 17 23:35:21 UT using Find_Orb
Click here for an explanation of pseudo-MPECs
Astrometry:
ZTF1073*tC2025 10 12.52001306 05 11.339-12 37 24.14 ~ACNo 15.21gUNEOCPI41
ZTF1073 tC2025 10 12.52036106 05 19.794-12 36 42.69 ~ACNo 15.21gUNEOCPI41
ZTF1073 tC2025 10 12.52048306 05 22.779-12 36 28.00 ~ACNo 15.19gUNEOCPI41
ZTF1073 tC2025 10 12.52083006 05 31.187-12 35 46.78 ~ACNo 15.19gUNEOCPI41
Station data:
(I41) Palomar Mountain--ZTF (N33.357336 W116.859780) US/California.
Observers B. T. Bolin, Z. T. F. Collaboration. Measurers B. T. Bolin,
Z.-Y. Lin, F. J. Masci. 1.2-m f/2.4 Schmidt.
Orbital elements: ZTF1073
Perigee 2025 Oct 12.783764 +/- 19.8 TT = 18:48:37.2 (JD 2460961.283764)
Epoch 2025 Oct 13.0 TT = JDT 2460961.5 AutoNEOCP
q361874.6438 +/- 3.13e+7 (J2000 equator)
H 24.75 G 0.15 Peri. 5.242669 +/- 43
Node 123.642520 +/- 45
e 155.40132343 +/- 0.194 Incl. 21.774399 +/- 33
From 4 observations 2025 Oct. 12 (70.6 sec); mean residual 0".13
Residuals in arcseconds: 251012 I41 .10- .04- 251012 I41 .28+ .12+ 251012 I41 .03- .02- 251012 I41 .15- .06- Ephemerides (geocentric): Date (UTC) HH RA Dec delta r elong mag " sig PA ---- -------- ------------ ------------ ------ ------ ----- --- -------- 2025 10 18 00 14 23 25.552 +21 38 45.59 .03946 .96387 33.7 25?? 39d 93 2025 10 18 01 14 23 32.622 +21 38 38.12 .03978 .96360 33.7 25?? 39d 93 2025 10 18 02 14 23 39.577 +21 38 30.61 .04009 .96334 33.7 25?? 39d 93 2025 10 18 03 14 23 46.420 +21 38 23.07 .04041 .96307 33.7 25?? 39d 93 2025 10 18 04 14 23 53.153 +21 38 15.48 .04072 .96280 33.7 25?? 39d 93 2025 10 18 05 14 23 59.779 +21 38 07.84 .04104 .96254 33.8 25?? 39d 93 2025 10 18 06 14 24 06.300 +21 38 00.17 .04135 .96227 33.8 25?? 39d 93 2025 10 18 07 14 24 12.718 +21 37 52.46 .04167 .96201 33.8 25?? 39d 93 2025 10 18 08 14 24 19.036 +21 37 44.71 .04198 .96174 33.8 25?? 39d 93 2025 10 18 09 14 24 25.256 +21 37 36.91 .04230 .96147 33.8 25?? 39d 93 2025 10 18 10 14 24 31.380 +21 37 29.08 .04261 .96121 33.8 25?? 39d 93 2025 10 18 11 14 24 37.410 +21 37 21.20 .04293 .96094 33.8 25?? 39d 93 2025 10 18 12 14 24 43.348 +21 37 13.29 .04324 .96068 33.8 25?? 39d 93 2025 10 18 13 14 24 49.196 +21 37 05.34 .04356 .96041 33.8 25?? 39d 93 2025 10 18 14 14 24 54.956 +21 36 57.34 .04387 .96014 33.8 25?? 39d 93 2025 10 18 15 14 25 00.630 +21 36 49.31 .04419 .95988 33.8 25?? 39d 93 2025 10 18 16 14 25 06.220 +21 36 41.23 .04450 .95961 33.8 25?? 39d 93 2025 10 18 17 14 25 11.727 +21 36 33.12 .04482 .95935 33.8 25?? 39d 93 2025 10 18 18 14 25 17.153 +21 36 24.97 .04513 .95908 33.8 25?? 39d 93 2025 10 18 19 14 25 22.499 +21 36 16.78 .04545 .95881 33.8 25?? 39d 93 2025 10 18 20 14 25 27.768 +21 36 08.54 .04576 .95855 33.9 25?? 39d 93 2025 10 18 21 14 25 32.961 +21 36 00.27 .04608 .95828 33.9 25?? 39d 93 2025 10 18 22 14 25 38.079 +21 35 51.96 .04639 .95802 33.9 25?? 39d 93 2025 10 18 23 14 25 43.124 +21 35 43.61 .04671 .95775 33.9 25?? 39d 93 2025 10 19 00 14 25 48.097 +21 35 35.22 .04702 .95748 33.9 25?? 39d 93 2025 10 19 01 14 25 53.000 +21 35 26.79 .04734 .95722 33.9 25?? 39d 93 2025 10 19 02 14 25 57.834 +21 35 18.32 .04765 .95695 33.9 25?? 39d 93 2025 10 19 03 14 26 02.600 +21 35 09.81 .04797 .95669 33.9 25?? 39d 93 2025 10 19 04 14 26 07.300 +21 35 01.26 .04828 .95642 33.9 25?? 39d 93 2025 10 19 05 14 26 11.934 +21 34 52.67 .04860 .95615 33.9 25?? 39d 93 2025 10 19 06 14 26 16.505 +21 34 44.04 .04892 .95589 33.9 25?? 39d 93 2025 10 19 07 14 26 21.013 +21 34 35.37 .04923 .95562 33.9 25?? 39d 93 2025 10 19 08 14 26 25.460 +21 34 26.66 .04955 .95536 33.9 25?? 39d 93 2025 10 19 09 14 26 29.846 +21 34 17.91 .04986 .95509 33.9 25?? 39d 93 2025 10 19 10 14 26 34.173 +21 34 09.12 .05018 .95482 33.9 25?? 39d 93 2025 10 19 11 14 26 38.442 +21 34 00.28 .05049 .95456 33.9 25?? 39d 93 2025 10 19 12 14 26 42.654 +21 33 51.41 .05081 .95429 33.9 25?? 39d 93 2025 10 19 13 14 26 46.809 +21 33 42.50 .05113 .95403 33.9 25?? 39d 93 2025 10 19 14 14 26 50.909 +21 33 33.55 .05144 .95376 33.9 25?? 39d 93 2025 10 19 15 14 26 54.956 +21 33 24.55 .05176 .95349 33.9 25?? 39d 93 2025 10 19 16 14 26 58.949 +21 33 15.52 .05207 .95323 33.9 25?? 39d 93 2025 10 19 17 14 27 02.889 +21 33 06.44 .05239 .95296 33.9 25?? 39d 93 2025 10 19 18 14 27 06.779 +21 32 57.32 .05270 .95270 34.0 25?? 39d 93 2025 10 19 19 14 27 10.618 +21 32 48.17 .05302 .95243 34.0 25?? 39d 93 2025 10 19 20 14 27 14.407 +21 32 38.97 .05334 .95216 34.0 25?? 39d 93 2025 10 19 21 14 27 18.148 +21 32 29.72 .05365 .95190 34.0 25?? 39d 93 2025 10 19 22 14 27 21.840 +21 32 20.44 .05397 .95163 34.0 25?? 39d 93 2025 10 19 23 14 27 25.486 +21 32 11.12 .05428 .95137 34.0 25?? 39d 93